NOAA 16 DEB, 41510

Orbit data source: Space-Track

NOAA 16 DEB, 41510 is space debris in LEO originally from a launch on Thu, 21 Sep 2000 UTC launched from the Air Force Western Test Range (AFWTR). Debris objects in space refer to the collection of defunct objects orbiting the Earth. Examples of debris include non-operational satellites, rocket bodies, and fragments generated from explosions, collisions, or faulty payload assembly.

Loading next visibility...
NOAA 16 DEB details
Identifier
41510, 2000-055MJ
Orbit
LEO
Last TLE update11 hours ago
Origin
Flag of USNOAA (US)
ManufacturerUnknown
MissionSpacecraft
Bus & MotorUnknown
MassUnknown
Launch date (UTC)
2000-09-21 (24 years ago)
Launch vehicleUnknown
Launch site
Air Force Western Test Range (AFWTR)
Object type
Payload
Rocket body
Debris
Shape & HBRUnknown
Radar Cross SectionSmall (<0.1 m²)

Expand to show TLE details & history

TLE from 11 hours ago
0 NOAA 16 DEB
1 41510U 00055MJ  24338.95447646  .00010672  00000-0  46771-2 0  9999
2 41510  98.7742  60.6178 0026956 199.7121 160.3017 14.23630330449488
Epoch: 2024-12-03T22:54Z
Definitive object data (Epoch: 2024-12-03T22:54:26.766Z)
Latitude-0.00007°
Longitude3.74971°
Altitude834.279 km
Speed7.426 km/s
True Right ascension04h 02m 28s
True Declination0° 00' 00"
Sunlit
Object was in full shadow at TLE epoch
Visualization TLE readout
Latitude-42.86554°
Longitude176.02138°
Altitude811.91 km
Speed7.455 km/s
Apparent Right ascension17h 39m 33s
Apparent Declination-46° 27' 10"
Sunlit
Object is in daylight
Visualization observer readout
Local Sidereal Time07:58:47
Azimuth116.133° SE
Elevation-64.019°
Doppler factor1
Orbital elements
Apogee altitude829.635 km
Perigee altitude790.881 km
Semi-major axis7,188.395 km
Eccentricity0.0026956
Inclination98.7742°
RAAN60.6178°
Arg. of periapsis199.7121°
True anomaly160.40549°
Mean anomaly160.3017°
Eccentric anomaly160.35363°
Mean motion3.56119 °/min
BSTAR0.0046771
Orbital period101.09 mins
Loading maneuver chart data...
Loading historical data...
Loading historical data...
Loading historical data...
Loading historical data...
Loading historical data...
Loading historical data...
Loading historical data...

NOAA 16 DEB Visibility forecast

Observer location: undefined°, undefined

Span
Click to sort rows by Start time (UTC) header in descending order
Start Az.
Max El. time (UTC)
Max El. Az.
Max El.
End time (UTC)
End Az.
9 mins2024-12-04 18:02:24.179Z26.845° NE2024-12-04 18:07:24.179Z100.645° ESE35.233°2024-12-04 18:11:24.179Z167.656° S
6 mins2024-12-04 19:44:24.179Z332.761° NNW2024-12-04 19:47:24.179Z288.387° WNW20.783°2024-12-04 19:50:24.179Z250.119° W
8 mins2024-12-05 05:24:24.179Z152.045° SSE2024-12-05 05:27:24.179Z101.256° ESE42.793°2024-12-05 05:32:24.179Z352.188° N
4 mins2024-12-05 07:06:24.179Z248.569° W2024-12-05 07:08:24.179Z272.586° WNW13.72°2024-12-05 07:10:24.179Z295.675° NW
|